Location: Moena
(46.3667°N, 11.6500°E)
Time: 14:54:58
(UTC+00:00)

Meteor 1-23 Rocket - Pass Details

Date: 03 March 2021
Orbit: 838 x 887 km, 81.3° (Epoch: 19 April)

Event Time Altitude Azimuth Distance (km) Brightness Sun altitude
Rises 19:21:46 0° 350° (N) 3,407 7.7 -24.6°
Reaches altitude 10° 19:24:11 10° 352° (N) 2,471 6.9 -25.0°
Maximum altitude 19:29:48 77° 79° (ENE) 873 4.0 -25.9°
Enters shadow 19:30:10 73° 119° (ESE) 887 4.0 -25.9°
